Location: Unspecified
(0.0000°N, 0.0000°E)
Time: 00:32:06
(UTC+00:00)

deb NNS O-18 - Pass Details

Date: 10 November 2024
Orbit: 1009 x 1291 km, 89.8° (Epoch: 29 November)

Event Time Altitude Azimuth Distance (km) Brightness Sun altitude
Rises 05:06:22 0° 201° (SSW) 4,125 ? -9.0°
Reaches altitude 10° 05:09:41 10° 215° (SW) 3,113 ? -8.2°
Maximum altitude 05:15:07 24° 264° (W) 2,188 ? -6.9°
Drops below altitude 10° 05:20:19 10° 315° (NW) 2,950 ? -5.6°
Sets 05:23:24 0° 329° (NNW) 3,860 ? -4.9°
